W5CGC Weather Reports


Display with metric or nautical units.
time (UTC)temp
F
wind
direction
speed
MPH
gust
MPH
rain 1hr
in
rain 24hr
in
rain mn
in
humidity
%
barometer
mb
20180622090559 82 229 0.0 6.0 0.00 0.00 0.00 76 1008.1
20180622085058 82 231 0.0 1.0 0.00 0.00 0.00 77 1008.2
20180622083558 82 235 0.0 1.0 0.00 0.00 0.00 78 1008.2
20180622082056 81 236 0.0 0.0 0.00 0.00 0.00 79 1008.2
20180622080555 82 236 0.0 0.0 0.00 0.00 0.00 77 1008.1
20180622075055 82 237 0.0 1.0 0.00 0.00 0.00 76 1008.1
20180622073554 83 236 0.0 4.0 0.00 0.00 0.00 76 1008.1
20180622072053 83 216 0.0 5.0 0.00 0.00 0.00 76 1008.1
20180622070553 82 218 0.0 2.0 0.00 0.00 0.00 76 1008.1
20180622065050 82 229 0.0 1.0 0.00 0.00 0.00 79 1008.3
20180622063546 81 228 0.0 0.0 0.00 0.00 0.00 79 1008.6
20180622062045 82 228 0.0 0.0 0.00 0.00 0.00 78 1008.6
20180622060542 83 228 0.0 0.0 0.00 0.00 0.00 76 1008.7
20180622055040 84 226 0.0 1.0 0.00 0.00 0.00 76 1008.8
20180622053539 83 239 0.0 0.0 0.00 0.00 0.00 77 1008.9
20180622052033 84 236 0.0 1.0 0.00 0.00 0.00 75 1009.0
20180622050530 85 229 0.0 1.0 0.00 0.00 0.00 74 1009.2
20180622045027 85 231 0.0 1.0 0.00 0.00 0.00 74 1009.3
20180622043529 84 232 0.0 1.0 0.00 0.00 0.00 75 1009.4
20180622042027 83 176 0.0 0.0 0.00 0.00 0.00 77 1009.4
20180622040527 84 176 0.0 0.0 0.00 0.00 0.00 76 1009.5
20180622035025 84 176 0.0 0.0 0.00 0.77 0.00 75 1009.7
20180622033526 84 176 0.0 0.0 0.00 0.77 0.00 75 1009.6
20180622032025 82 176 0.0 0.0 0.00 0.77 0.00 75 1009.4
20180622030526 80 175 0.0 0.0 0.00 0.77 0.00 78 1009.2
20180622025022 80 175 0.0 0.0 0.00 2.73 0.00 81 1009.0
20180622023522 81 174 0.0 0.0 0.00 2.73 0.00 80 1008.9
20180622022021 81 175 0.0 0.0 0.00 2.73 0.00 78 1008.9
20180622020522 83 175 0.0 0.0 0.00 2.73 0.00 76 1008.7
20180622015021 84 175 0.0 0.0 0.00 2.73 0.00 74 1008.7
20180622013520 85 175 0.0 0.0 0.00 2.73 0.00 70 1008.7
20180622012019 87 174 0.0 0.0 0.00 2.73 0.00 66 1008.6
20180622010519 88 174 0.0 2.0 0.00 2.73 0.00 61 1008.6
20180622005018 89 175 0.0 0.0 0.00 2.73 0.00 60 1008.6
20180622003518 90 175 0.0 0.0 0.00 2.73 0.00 60 1008.6
20180622002018 91 175 0.0 0.0 0.00 2.73 0.00 58 1008.7
20180622000516 92 174 0.0 0.0 0.00 2.73 0.00 56 1008.7
20180621235016 93 190 0.0 0.0 0.00 2.73 0.00 53 1008.8
20180621233512 94 96 0.0 0.0 0.00 2.73 0.00 52 1008.9
20180621232013 95 96 0.0 0.0 0.00 2.73 0.00 51 1008.9
20180621230509 96 96 0.0 0.0 0.00 2.73 0.00 49 1009.1
20180621225008 97 96 0.0 0.0 0.00 2.73 0.00 46 1009.3
20180621223507 95 96 0.0 0.0 0.00 2.73 0.00 50 1009.4
20180621222003 95 96 0.0 0.0 0.00 2.73 0.00 50 1009.7
20180621220503 95 97 0.0 0.0 0.00 2.73 0.00 53 1009.9
20180621214959 95 129 0.0 0.0 0.00 2.73 0.00 53 1010.0
20180621213457 95 92 0.0 0.0 0.00 2.73 0.00 52 1010.2
20180621211957 97 149 0.0 0.0 0.00 2.73 0.00 50 1010.3
20180621210457 96 156 0.0 1.0 0.00 2.73 0.00 50 1010.5
20180621204953 97 169 0.0 0.0 0.00 2.73 0.00 49 1010.6
20180621203450 96 96 0.0 0.0 0.00 2.73 0.00 51 1010.8
20180621201947 96 146 0.0 0.0 0.00 2.73 0.00 49 1010.9
20180621200446 95 120 0.0 0.0 0.00 2.73 0.00 51 1011.0
20180621194944 94 103 0.0 1.0 0.00 2.73 0.00 52 1011.1
20180621193444 94 118 0.0 0.0 0.00 2.73 0.00 52 1011.2
20180621191945 95 79 0.0 0.0 0.00 2.73 0.00 50 1011.4
20180621190443 94 77 0.0 0.0 0.00 2.73 0.00 53 1011.5
20180621184940 94 78 0.0 0.0 0.00 2.73 0.00 54 1011.8
20180621183441 94 78 0.0 0.0 0.00 2.73 0.00 53 1011.9
20180621181939 93 77 0.0 0.0 0.00 2.73 0.00 54 1012.0
20180621180437 93 77 0.0 0.0 0.00 2.73 0.00 58 1012.1
20180621174933 93 79 0.0 0.0 0.00 2.73 0.00 59 1012.3
20180621173432 92 79 0.0 0.0 0.00 2.73 0.00 60 1012.5
20180621171928 91 79 0.0 1.0 0.00 2.73 0.00 60 1012.6
20180621170424 90 79 0.0 0.0 0.00 2.73 0.00 68 1012.7
20180621164921 89 79 0.0 0.0 0.00 2.73 0.00 74 1012.7
20180621163418 87 79 0.0 0.0 0.00 2.73 0.00 80 1012.7
20180621161913 86 79 0.0 0.0 0.00 2.73 0.00 84 1012.9
20180621160413 84 79 0.0 0.0 0.00 2.73 0.00 90 1012.7
20180621154906 82 79 0.0 0.0 0.00 2.73 0.00 94 1012.7
20180621153403 80 79 0.0 0.0 0.00 2.73 0.00 96 1012.9
20180621151905 80 79 0.0 0.0 0.00 2.73 0.00 96 1012.9
20180621150359 79 79 0.0 0.0 0.00 2.73 0.00 97 1013.0
20180621144858 79 195 0.0 0.0 0.00 2.73 0.00 97 1012.9
20180621143359 78 229 0.0 0.0 0.00 2.73 0.00 97 1012.9
20180621141855 78 229 0.0 0.0 0.00 2.73 0.00 97 1012.9
20180621140353 77 229 0.0 0.0 0.00 2.73 0.00 97 1012.8
20180621134850 76 229 0.0 0.0 0.00 2.73 0.00 97 1012.8
20180621133348 76 228 0.0 0.0 0.00 2.73 0.00 97 1012.8
20180621131846 75 227 0.0 0.0 0.00 2.73 0.00 97 1012.7
20180621130443 73 227 0.0 0.0 0.00 2.73 0.00 97 1012.8
20180621124836 73 228 0.0 0.0 0.00 2.73 0.00 97 1012.8
20180621123333 73 227 0.0 0.0 0.00 2.73 0.00 97 1012.8
20180621121831 72 227 0.0 0.0 0.00 2.73 0.00 97 1012.8
20180621120328 72 228 0.0 0.0 0.00 2.73 0.00 97 1012.7
20180621114827 71 228 0.0 0.0 0.00 2.73 0.00 97 1012.6
20180621113324 71 228 0.0 0.0 0.00 2.73 0.00 97 1012.3
20180621111825 71 228 0.0 0.0 0.00 2.73 0.00 97 1012.3
20180621110324 70 228 0.0 0.0 0.00 2.73 0.00 97 1011.9
20180621104819 70 228 0.0 0.0 0.00 2.73 0.00 97 1011.8
20180621103318 71 228 0.0 0.0 0.00 2.73 0.00 97 1011.7
20180621101819 71 228 0.0 0.0 0.00 2.73 0.00 97 1011.5
20180621100317 71 228 0.0 0.0 0.00 2.73 0.00 97 1011.3
20180621094815 71 227 0.0 0.0 0.00 2.73 0.00 97 1011.4
20180621093315 71 228 0.0 0.0 0.00 2.73 0.00 97 1011.1